Flag for Japan Weather past 2 weeks in Minamisōma, Japan

Now
70 °F

Passing clouds.


Feels Like: 70 °F
Forecast: 60 / 73 °F
Wind: 1 mph from North

Location: Sendai Airport

Current Time: Jul 8, 2015 at 12:54:10 AM

Latest Report: Jul 7, 2015 at 9:00 PM


Visibility: N/A

Pressure: 29.89 "Hg

Humidity: 88%

Dew point: 66 °F

Location of MinamisōmaLocation

Historic Weather in Minamisōma — Graph

°F

Minamisōma temperature yesterday

Maximum temperature yesterday: 75 °F (at 12:00 PM)
Minimum temperature yesterday: 68 °F (at 6:00 AM)
Average temperature yesterday: 72 °F

Past Weeks' High & Low Weather Summary

 TemperatureHumidityPressure
High79 °F (Jul 2, 2:00 PM)100% (Jun 27, 6:00 AM)29.92 "Hg (Jun 27, 6:00 AM)
Low57 °F (Jun 29, 6:00 AM)58% (Jul 2, 2:00 PM)29.27 "Hg (Jul 1, 3:00 PM)
Average70 °F84%29.71 "Hg
* Reported Jun 22 9:00 PM — Jul 7 9:00 PM, Minamisōma, Weather by CustomWeather, © 2015

Note: Actual official high and low records may vary slightly from our data, if they occured in-between our weather recording intervals... More about our weather records

Advertising

Minamisōma weather history for previous 24 hours

 ConditionsComfort  
Time TempWeatherWind HumidityBarometerVisibility
9:00 PM
Tue, Jul 7
70 °FPassing clouds.1 mph88%29.89 "HgN/A
8:00 PM70 °FPassing clouds.2 mph88%29.89 "HgN/A
7:00 PM70 °FPartly sunny.5 mph88%29.86 "HgN/A
6:00 PM72 °FPartly sunny.3 mph88%29.86 "HgN/A
5:00 PM73 °FBroken clouds.6 mph78%29.83 "HgN/A
4:00 PM73 °FBroken clouds.8 mph78%29.83 "HgN/A
3:00 PM73 °FBroken clouds.9 mph74%29.86 "HgN/A
2:00 PM75 °FBroken clouds.12 mph69%29.86 "HgN/A
1:00 PM73 °FBroken clouds.12 mph74%29.86 "HgN/A
12:00 PM75 °FPartly sunny.12 mph69%29.86 "HgN/A
11:00 AM73 °FPartly sunny.10 mph78%29.89 "HgN/A
10:00 AM73 °FBroken clouds.12 mph78%29.89 "HgN/A
9:00 AM72 °FPartly sunny.8 mph83%29.89 "HgN/A
8:00 AM72 °FPartly sunny.6 mph83%29.89 "HgN/A
7:00 AM70 °FBroken clouds.3 mph88%29.89 "HgN/A
6:00 AM68 °FPartly sunny.5 mph94%29.89 "HgN/A
Weather by CustomWeather, © 2015

See weather overviewHow to use our weather pages